Regional Weather Roundup
Issued by NWS State College, PA

Home | Current Version | Previous Version | Text Only | Print | Product List | Glossary On
Versions: 1 2 3 4 5 6 7 8 9 10 11 12 13 14 15 16 17 18 19 20 21 22 23 24 25 26 27 28 29 30 31 32 33 34 35 36 37 38 39 40 41 42 43 44 45 46 47 48 49 50
000
ASUS41 KCTP 270710
RWRCTP

REGIONAL WEATHER ROUNDUP
NATIONAL WEATHER SERVICE STATE COLLEGE PA
300 AM EDT MON MAR 27 2017

Note: "fair" indicates few or no clouds below 12,000 feet with no
significant weather and/or obstructions to visibility.

* = STATION THAT DOES NOT REPORT PRECIPITATION /E.G. RAIN...SNOW...ETC/
    THUNDER OR FOG.

PAZ002>004-007>009-013>016-020>023-029>032-270800-
WESTERN PENNSYLVANIA

CITY           SKY/WX    TMP DP  RH WIND       PRES   REMARKS
ERIE           CLOUDY    52  48  86 S14       29.89F
MEADVILLE      CLOUDY    49  32  52 VRB3      29.91F
FRANKLIN*      CLOUDY    46  43  87 SE9       29.94F
NEW CASTLE     CLOUDY    54  52  94 VRB5      29.92F
BEAVER COUNTY  NOT AVBL
BUTLER*        CLOUDY    50  48  93 S5        29.95F
PITTSBURGH INT CLOUDY    53  53 100 SE5       29.94F
PITTSBURGH     LGT RAIN  54  51  90 S6        29.95F
INDIANA*       CLOUDY    46  45  93 S12G20    30.00S FOG
LATROBE        CLOUDY    54  50  87 S9        29.98R
WASHINGTON CO* CLOUDY    55  54  94 W6        29.98R
$$

PAZ004>006-010>012-017>019-024>028-033>037-041-042-045-046-049>053-270800-
CENTRAL PENNSYLVANIA

CITY           SKY/WX    TMP DP  RH WIND       PRES   REMARKS
BRADFORD       RAIN      42  41  96 SE12      29.96F FOG
DUBOIS         LGT RAIN  43  41  93 CALM      29.98R FOG
CLEARFIELD       N/A    N/A N/A N/A MISG      30.02F
JOHNSTOWN      CLOUDY    44  43  96 S7        30.00F
ALTOONA        LGT RAIN  44  43  96 S9        30.06F
STATE COLLEGE  LGT RAIN  40  39  96 CALM      30.06F
WILLIAMSPORT   CLOUDY    41  38  89 NE8       30.12F
SELINSGROVE    LGT RAIN  40  39  97 CALM      30.14F
FT INDIANTOWN  LGT RAIN  39  39 100 NE3       30.15F FOG
CAPITAL CITY   CLOUDY    43  39  86 E8        30.15F FOG
HARRISBURG     DRIZZLE   41  41 100 E7        30.15F FOG
YORK           CLOUDY    42  42 100 E3        30.14F
$$

PAZ038>040-043-044-047-048-054-055-060>062-067>071-270800-
EASTERN PENNSYLVANIA

CITY           SKY/WX    TMP DP  RH WIND       PRES   REMARKS
SCRANTON       LGT RAIN  39  37  92 NE9       30.11F
MOUNT POCONO   FRZ RAIN  32  32 100 E12       30.11F VSB 1/4
ALLENTOWN      CLOUDY    40  37  89 E8        30.18F FOG
QUAKERTOWN*    CLOUDY    39  39 100 E3        30.18F
READING        LGT RAIN  41  41 100 E6        30.16F
LANCASTER      LGT RAIN  41  41 100 E8        30.15F FOG
COATESVILLE    MIX PCPN  41  41 100 E9        30.16F VSB<1/4
POTTSTOWN      CLOUDY    39  39 100 VRB3      30.18F FOG
BLUE BELL      CLOUDY    37  37 100 E6        30.17F
DOYLESTOWN     CLOUDY    39  39 100 CALM      30.17F
WILLOW GROVE   NOT AVBL
NORTH PHILA    CLOUDY    42  41  96 E8        30.20F FOG
PHILADELPHIA   CLOUDY    42  41  96 E7        30.18F FOG
$$




USA.gov is the U.S. government's official web portal to all federal, state and local government web resources and services.